When you browse on this site, cookies collect data to enhance your experience and personalize the content and advertising you see.
Visit our Privacy Policy to learn more. By continuing to use the site, you agree to this use of cookies and data.
  • In Hungary
  • List of Countries
  • For 7 days
  • Water Temperature
  • Satellite Maps
  • Weather Map
  • News
  • Weather Widgets
  • user-avatar
    Login

    Hourly Weather Biatris

    Today, 16 January, Wednesday

    Time Temperature Precipitation Wind Pressure Humidity
    00:00 +20°C° 0.1 mm 1 mps 652 mmHg 94%
    01:00 +20°C° 0.1 mm 1 mps 652 mmHg 94%
    02:00 +19°C° 0 mm 2 mps 652 mmHg 94%
    03:00 +19°C° 0.1 mm 2 mps 652 mmHg 94%
    04:00 +19°C° 0.1 mm 2 mps 652 mmHg 94%
    05:00 +19°C° 0.1 mm 2 mps 652 mmHg 93%
    06:00 +19°C° 0.1 mm 2 mps 652 mmHg 91%
    07:00 +20°C° 0.1 mm 2 mps 652 mmHg 89%
    08:00 +21°C° 0 mm 2 mps 653 mmHg 84%
    09:00 +23°C° 0.1 mm 2 mps 653 mmHg 81%
    10:00 +23°C° 0.1 mm 2 mps 653 mmHg 77%
    11:00 +24°C° 0.1 mm 2 mps 653 mmHg 73%
    12:00 +25°C° 0.4 mm 2 mps 652 mmHg 69%
    13:00 +26°C° 0.4 mm 2 mps 652 mmHg 65%
    14:00 +28°C° 0.4 mm 3 mps 652 mmHg 61%
    15:00 +27°C° 1.2 mm 3 mps 652 mmHg 65%
    16:00 +27°C° 1.2 mm 3 mps 651 mmHg 68%
    17:00 +26°C° 1.2 mm 3 mps 651 mmHg 72%
    18:00 +25°C° 2.1 mm 2 mps 651 mmHg 77%
    19:00 +24°C° 2.1 mm 2 mps 651 mmHg 82%
    20:00 +21°C° 2.1 mm 2 mps 651 mmHg 87%
    21:00 +21°C° 0.4 mm 2 mps 651 mmHg 88%
    22:00 +21°C° 0.4 mm 2 mps 652 mmHg 89%
    23:00 +20°C° 0.4 mm 2 mps 652 mmHg 90%

    Tomorrow, 17 January, Thursday

    Time Temperature Precipitation Wind Pressure Humidity
    00:00 +21°C° 0 mm 1 mps 651 mmHg 91%
    01:00 +21°C° 0 mm 1 mps 651 mmHg 92%
    02:00 +21°C° 0 mm 1 mps 651 mmHg 93%
    03:00 +21°C° 0.5 mm 1 mps 651 mmHg 94%
    04:00 +21°C° 0.5 mm 1 mps 651 mmHg 95%
    05:00 +20°C° 0.5 mm 1 mps 651 mmHg 96%
    06:00 +21°C° 0.5 mm 1 mps 651 mmHg 94%
    07:00 +21°C° 0.5 mm 1 mps 651 mmHg 92%
    08:00 +22°C° 0.5 mm 1 mps 652 mmHg 90%
    09:00 +24°C° 0.2 mm 2 mps 652 mmHg 81%
    10:00 +25°C° 0.2 mm 2 mps 652 mmHg 73%
    11:00 +27°C° 0.2 mm 2 mps 652 mmHg 65%
    12:00 +28°C° 0.3 mm 2 mps 652 mmHg 62%
    13:00 +28°C° 0.3 mm 2 mps 652 mmHg 59%
    14:00 +29°C° 0.3 mm 3 mps 652 mmHg 56%
    15:00 +28°C° 0.9 mm 3 mps 651 mmHg 62%
    16:00 +26°C° 0.9 mm 3 mps 650 mmHg 69%
    17:00 +25°C° 0.9 mm 3 mps 650 mmHg 76%
    18:00 +24°C° 0.5 mm 2 mps 650 mmHg 81%
    19:00 +23°C° 0.5 mm 2 mps 650 mmHg 86%
    20:00 +21°C° 0.5 mm 2 mps 651 mmHg 91%
    21:00 +20°C° 0.1 mm 2 mps 651 mmHg 92%
    22:00 +20°C° 0.1 mm 2 mps 651 mmHg 93%
    23:00 +21°C° 0.1 mm 1 mps 651 mmHg 95%

    Day after tomorrow, 18 January, Friday

    Time Temperature Precipitation Wind Pressure Humidity
    00:00 +21°C° 0 mm 1 mps 651 mmHg 95%
    01:00 +20°C° 0 mm 1 mps 650 mmHg 96%
    02:00 +20°C° 0 mm 1 mps 649 mmHg 97%
    03:00 +20°C° 0 mm 1 mps 649 mmHg 97%
    04:00 +20°C° 0 mm 1 mps 650 mmHg 97%
    05:00 +20°C° 0 mm 1 mps 650 mmHg 97%
    06:00 +20°C° 0 mm 2 mps 650 mmHg 91%
    07:00 +21°C° 0 mm 2 mps 651 mmHg 86%
    08:00 +24°C° 0 mm 2 mps 651 mmHg 80%
    09:00 +25°C° 0 mm 2 mps 651 mmHg 73%
    10:00 +27°C° 0 mm 2 mps 652 mmHg 66%
    11:00 +28°C° 0 mm 2 mps 652 mmHg 58%
    12:00 +29°C° 0.4 mm 2 mps 651 mmHg 56%
    13:00 +30°C° 0.4 mm 2 mps 651 mmHg 53%
    14:00 +30°C° 0.4 mm 2 mps 651 mmHg 50%
    15:00 +29°C° 1.2 mm 2 mps 650 mmHg 57%
    16:00 +28°C° 1.2 mm 2 mps 650 mmHg 63%
    17:00 +27°C° 1.2 mm 2 mps 649 mmHg 69%
    18:00 +25°C° 1.7 mm 2 mps 649 mmHg 75%
    19:00 +24°C° 1.7 mm 1 mps 649 mmHg 80%
    20:00 +23°C° 1.7 mm 1 mps 650 mmHg 85%
    21:00 +23°C° 1.2 mm 1 mps 650 mmHg 86%
    22:00 +22°C° 1.2 mm 1 mps 650 mmHg 86%
    23:00 +22°C° 1.2 mm 1 mps 650 mmHg 86%

    19 January, Saturday

    Time Temperature Precipitation Wind Pressure Humidity
    00:00 +22°C° 0.2 mm 1 mps 650 mmHg 88%
    01:00 +20°C° 0.2 mm 0 mps 649 mmHg 90%
    02:00 +19°C° 0.2 mm 0 mps 649 mmHg 91%
    03:00 +21°C° 0.2 mm 1 mps 649 mmHg 93%
    04:00 +21°C° 0.2 mm 1 mps 649 mmHg 94%
    05:00 +21°C° 0.2 mm 1 mps 649 mmHg 95%
    06:00 +20°C° 0 mm 2 mps 650 mmHg 93%
    07:00 +21°C° 0 mm 2 mps 650 mmHg 90%
    08:00 +23°C° 0 mm 2 mps 651 mmHg 88%
    09:00 +25°C° 0 mm 2 mps 651 mmHg 77%
    10:00 +27°C° 0 mm 3 mps 651 mmHg 66%
    11:00 +29°C° 0 mm 3 mps 652 mmHg 56%
    12:00 +29°C° 0 mm 3 mps 651 mmHg 51%
    13:00 +30°C° 0 mm 4 mps 651 mmHg 46%
    14:00 +32°C° 0 mm 4 mps 651 mmHg 41%
    15:00 +32°C° 0 mm 4 mps 651 mmHg 43%
    16:00 +30°C° 0 mm 4 mps 650 mmHg 45%
    17:00 +30°C° 0 mm 3 mps 650 mmHg 47%
    18:00 +28°C° 0.1 mm 3 mps 650 mmHg 56%
    19:00 +26°C° 0.1 mm 2 mps 650 mmHg 65%
    20:00 +24°C° 0.1 mm 2 mps 650 mmHg 74%
    21:00 +23°C° 0 mm 2 mps 651 mmHg 76%
    22:00 +23°C° 0 mm 2 mps 651 mmHg 79%
    23:00 +21°C° 0 mm 3 mps 651 mmHg 81%

    20 January, Sunday

    Time Temperature Precipitation Wind Pressure Humidity
    00:00 +21°C° 0.3 mm 2 mps 651 mmHg 84%
    01:00 +20°C° 0.3 mm 2 mps 650 mmHg 87%
    02:00 +20°C° 0.3 mm 2 mps 649 mmHg 90%
    03:00 +20°C° 0.3 mm 2 mps 650 mmHg 90%
    04:00 +20°C° 0.3 mm 2 mps 650 mmHg 91%
    05:00 +20°C° 0.3 mm 3 mps 650 mmHg 91%
    06:00 +20°C° 0.8 mm 3 mps 650 mmHg 90%
    07:00 +20°C° 0.8 mm 4 mps 651 mmHg 89%
    08:00 +20°C° 0.8 mm 5 mps 651 mmHg 89%
    09:00 +19°C° 5.1 mm 5 mps 651 mmHg 90%
    10:00 +19°C° 5.1 mm 5 mps 651 mmHg 90%
    11:00 +19°C° 5.1 mm 5 mps 651 mmHg 91%
    12:00 +19°C° 5.6 mm 6 mps 651 mmHg 91%
    13:00 +17°C° 5.6 mm 6 mps 650 mmHg 91%
    14:00 +17°C° 5.6 mm 7 mps 650 mmHg 90%
    15:00 +17°C° 1.5 mm 7 mps 650 mmHg 90%
    16:00 +17°C° 1.5 mm 7 mps 650 mmHg 89%
    17:00 +17°C° 1.5 mm 7 mps 650 mmHg 88%
    18:00 +17°C° 0.3 mm 7 mps 651 mmHg 88%
    19:00 +16°C° 0.3 mm 8 mps 651 mmHg 88%
    20:00 +16°C° 0.3 mm 8 mps 652 mmHg 88%
    21:00 +16°C° 0.2 mm 8 mps 652 mmHg 88%
    22:00 +16°C° 0.2 mm 8 mps 652 mmHg 88%
    23:00 +16°C° 0.2 mm 8 mps 653 mmHg 88%

    21 January, Monday

    Time Temperature Precipitation Wind Pressure Humidity
    00:00 +16°C° 0 mm 7 mps 652 mmHg 88%
    01:00 +16°C° 0 mm 7 mps 652 mmHg 88%
    02:00 +16°C° 0 mm 7 mps 652 mmHg 88%
    03:00 +16°C° 0 mm 6 mps 652 mmHg 88%
    04:00 +16°C° 0 mm 6 mps 652 mmHg 87%
    05:00 +16°C° 0 mm 6 mps 652 mmHg 87%
    06:00 +16°C° 0.3 mm 5 mps 652 mmHg 88%
    07:00 +16°C° 0.3 mm 5 mps 653 mmHg 89%
    08:00 +16°C° 0.3 mm 5 mps 653 mmHg 89%
    09:00 +16°C° 0.2 mm 5 mps 653 mmHg 88%
    10:00 +16°C° 0.2 mm 5 mps 653 mmHg 87%
    11:00 +18°C° 0.2 mm 4 mps 653 mmHg 86%
    12:00 +18°C° 0.2 mm 4 mps 653 mmHg 85%
    13:00 +19°C° 0.2 mm 5 mps 653 mmHg 83%
    14:00 +19°C° 0.2 mm 5 mps 652 mmHg 82%
    15:00 +19°C° 0.1 mm 5 mps 652 mmHg 81%
    16:00 +19°C° 0.1 mm 5 mps 652 mmHg 81%
    17:00 +19°C° 0.1 mm 5 mps 652 mmHg 80%
    18:00 +17°C° 0 mm 5 mps 652 mmHg 82%
    19:00 +17°C° 0 mm 5 mps 652 mmHg 84%
    20:00 +17°C° 0 mm 4 mps 652 mmHg 86%
    21:00 +17°C° 0 mm 4 mps 652 mmHg 87%
    22:00 +17°C° 0 mm 4 mps 652 mmHg 88%
    23:00 +17°C° 0 mm 3 mps 653 mmHg 89%
    Show more